STARLINK-2015, 47638

Orbit data source: Space-Track

STARLINK-2015, 47638 is a payload satellite owned by SpaceX/Seattle (US) in LEO that was launched on Tue, 16 Feb 2021 UTC via an FALCON 9 launch vehicle from the Air Force Eastern Test Range (AFETR). Payload-class satellites include a variety of spacecraft equipped with specific instruments for various scientific and technological missions. These include communications satellites like Starlink; space stations such as the ISS; scientific satellites like the Hubble; Earth observation satellites from companies like Planet Labs, Umbra, and HawkEye 360; GPS; miniature CubeSats for education and research; and military/defense satellites.

Loading next visibility...
Identifier
47638, 2021-012U
Orbit
LEO
Country
Flag of USUS
Related business
Manufacturer
SpaceX/Seattle
Mission
Operational Commercial Communications
Bus & Motor
STARLINK, Unknown motor
Mass
260 kg wet, ~248 kg dry
Launch date (UTC)
2021-02-16 (5 years ago)
Launch vehicle
FALCON 9
Launch site
Air Force Eastern Test Range (AFETR)
Object type
Payload
Rocket body
Debris
Shape & HBR
Box + 1 Pan, 10.1 m
Radar Cross Section
13.562 m², Large (>1 m²)

Expand to show TLE details & history
Last TLE update: 12 hours ago

TLE from 12 hours ago
0 STARLINK-2015
1 47638U 21012U   25343.39298628 -.00002031  00000-0 -11745-3 0  9997
2 47638  53.0542  21.9768 0001540  80.8042 279.3122 15.06401755267683
Epoch: 2025-12-09T09:25Z
TLE epoch observation values (Epoch: 2025-12-09T09:25:54.014Z)
Latitude
0.00004°
Longitude
162.12346°
Altitude
547.913 km
Speed
7.589 km/s
True Right ascension
01h 27m 54s
True Declination
0° 00' 00"
Sunlit
Object was in full shadow at epoch
Visualization orbit readout
Latitude
Unknown
Longitude
Unknown
Altitude
Unknown
Speed
Unknown
Apparent Right ascension
Unknown
Apparent Declination
Unknown
Sunlit
N/A
Visualization observer readout
Local Sidereal Time
19:50:32
Azimuth
Unknown
Elevation
Unknown
Doppler factor
Unknown
Orbital elements
Apogee altitude
548.543 km
Perigee altitude
546.41 km
Semi-major axis
6,925.614 km
Eccentricity
0.00015
Inclination
53.0542°
RAAN
21.9768°
Arg. of periapsis
80.8042°
True anomaly
279.29478°
Mean anomaly
279.3122°
Eccentric anomaly
279.30349°
Mean motion
3.76579 °/min
Orbital period
95.6 mins
BSTAR
-0.00011745
Loading maneuver chart data...
Computing Atmospheric mass density...
Loading historical data...
Loading historical data...
Loading historical data...
Loading historical data...
Loading historical data...
Loading historical data...
Loading historical data...

Documentation

Showing up to 5 results
|